Time,TemperatureF,DewpointF,PressureIn,WindDirection,WindDirectionDegrees,WindSpeedMPH,WindSpeedGustMPH,Humidity,HourlyPrecipIn,Conditions,Clouds,dailyrainin,SoftwareType,DateUTC
2013-07-22 00:01:00,67.4,65.5,29.99,WSW,253,0.0,0.0,94,0.00,,CLR,0.00,VWS V14.01,2013-07-22 04:01:00,
2013-07-22 00:02:00,67.4,65.6,29.99,WSW,253,0.0,0.0,94,0.00,,CLR,0.00,VWS V14.01,2013-07-22 04:02:00,
2013-07-22 00:07:00,67.3,65.5,30.00,WSW,253,0.0,0.0,94,0.00,,CLR,0.00,VWS V14.01,2013-07-22 04:07:00,
2013-07-22 00:12:00,67.3,65.5,30.00,WSW,253,0.0,0.0,94,0.00,,CLR,0.00,VWS V14.01,2013-07-22 04:12:00,
2013-07-22 00:17:00,67.3,65.6,30.00,WSW,253,0.0,0.0,94,0.00,,CLR,0.00,VWS V14.01,2013-07-22 04:17:00,
2013-07-22 00:23:00,67.4,65.7,30.00,WSW,253,0.0,0.0,94,0.00,,CLR,0.00,VWS V14.01,2013-07-22 04:23:00,
2013-07-22 00:28:00,67.4,65.7,30.00,WSW,253,0.0,0.0,94,0.00,,CLR,0.00,VWS V14.01,2013-07-22 04:28:00,
2013-07-22 00:33:00,67.3,65.7,30.00,WSW,253,0.0,0.0,94,0.00,,CLR,0.00,VWS V14.01,2013-07-22 04:33:00,
2013-07-22 00:38:00,67.3,65.7,30.00,WSW,253,0.0,0.0,95,0.00,,CLR,0.00,VWS V14.01,2013-07-22 04:38:00,
2013-07-22 00:43:00,67.3,65.8,30.00,WSW,253,0.0,0.0,95,0.00,,CLR,0.00,VWS V14.01,2013-07-22 04:43:00,
2013-07-22 00:48:00,67.3,65.8,30.00,WSW,253,0.0,0.0,95,0.00,,CLR,0.00,VWS V14.01,2013-07-22 04:48:00,
2013-07-22 00:53:00,67.4,65.9,29.99,WSW,253,0.0,0.0,95,0.00,,CLR,0.00,VWS V14.01,2013-07-22 04:53:00,
2013-07-22 00:58:00,67.4,66.0,30.00,WSW,253,0.0,0.0,95,0.00,,CLR,0.00,VWS V14.01,2013-07-22 04:58:00,
2013-07-22 01:03:00,67.4,66.0,30.00,WSW,253,0.0,0.0,95,0.00,,CLR,0.00,VWS V14.01,2013-07-22 05:03:00,
2013-07-22 01:08:00,67.4,66.0,30.00,WSW,253,0.0,0.0,95,0.00,,CLR,0.00,VWS V14.01,2013-07-22 05:08:00,
2013-07-22 01:13:00,67.6,66.3,30.00,WSW,253,0.0,0.0,96,0.00,,CLR,0.00,VWS V14.01,2013-07-22 05:13:00,
2013-07-22 01:19:00,67.7,66.4,30.00,WSW,253,0.0,0.0,96,0.00,,CLR,0.00,VWS V14.01,2013-07-22 05:19:00,
2013-07-22 01:24:00,67.7,66.5,30.00,WSW,253,0.0,0.0,96,0.00,,CLR,0.00,VWS V14.01,2013-07-22 05:24:00,
2013-07-22 01:29:00,67.8,66.6,30.00,WSW,253,0.0,0.0,96,0.00,,CLR,0.00,VWS V14.01,2013-07-22 05:29:00,
2013-07-22 01:34:00,67.8,66.6,30.00,WSW,253,0.0,0.0,96,0.00,,CLR,0.00,VWS V14.01,2013-07-22 05:34:00,
2013-07-22 01:39:00,67.8,66.6,30.00,WSW,253,0.0,0.0,96,0.00,,CLR,0.00,VWS V14.01,2013-07-22 05:39:00,
2013-07-22 01:44:00,67.8,66.7,30.00,WSW,253,0.0,0.0,96,0.00,,CLR,0.00,VWS V14.01,2013-07-22 05:44:00,
2013-07-22 01:49:00,67.8,66.7,30.00,WSW,253,0.0,0.0,96,0.00,,CLR,0.00,VWS V14.01,2013-07-22 05:49:00,
2013-07-22 01:54:00,67.8,66.7,30.00,WSW,253,0.0,0.0,96,0.00,,CLR,0.00,VWS V14.01,2013-07-22 05:54:00,
2013-07-22 01:59:00,67.8,66.7,29.99,WSW,253,0.0,0.0,96,0.00,,CLR,0.00,VWS V14.01,2013-07-22 05:59:00,
2013-07-22 02:05:00,67.8,66.8,30.00,WSW,253,0.0,0.0,96,0.00,,CLR,0.00,VWS V14.01,2013-07-22 06:05:00,
2013-07-22 02:10:00,67.8,66.8,30.00,WSW,253,0.0,0.0,97,0.00,,CLR,0.00,VWS V14.01,2013-07-22 06:10:00,
2013-07-22 02:15:00,67.8,66.8,30.00,WSW,253,0.0,0.0,97,0.00,,CLR,0.00,VWS V14.01,2013-07-22 06:15:00,
2013-07-22 02:20:00,67.8,66.8,30.00,WSW,253,0.0,0.0,97,0.00,,CLR,0.00,VWS V14.01,2013-07-22 06:20:00,
2013-07-22 02:25:00,67.7,66.8,30.00,WSW,253,0.0,0.0,97,0.00,,CLR,0.00,VWS V14.01,2013-07-22 06:25:00,
2013-07-22 02:30:00,67.7,66.8,30.00,WSW,253,0.0,0.0,97,0.00,,CLR,0.00,VWS V14.01,2013-07-22 06:30:00,
2013-07-22 02:35:00,67.7,66.8,29.99,WSW,253,0.0,0.0,97,0.00,,CLR,0.00,VWS V14.01,2013-07-22 06:35:00,
2013-07-22 02:40:00,67.7,66.8,29.98,WSW,253,0.0,0.0,97,0.00,,CLR,0.00,VWS V14.01,2013-07-22 06:40:00,
2013-07-22 02:46:00,67.6,66.8,29.99,WSW,253,0.0,0.0,97,0.00,,CLR,0.00,VWS V14.01,2013-07-22 06:46:00,
2013-07-22 02:51:00,67.5,66.7,29.99,WSW,253,0.0,0.0,97,0.00,,CLR,0.00,VWS V14.01,2013-07-22 06:51:00,
2013-07-22 02:56:00,67.5,66.7,29.99,WSW,253,0.0,0.0,97,0.00,,CLR,0.00,VWS V14.01,2013-07-22 06:56:00,
2013-07-22 03:01:00,67.4,66.6,29.99,WSW,253,0.0,0.0,97,0.00,,CLR,0.00,VWS V14.01,2013-07-22 07:01:00,
2013-07-22 03:06:00,67.4,66.7,29.99,WSW,253,0.0,0.0,98,0.00,,CLR,0.00,VWS V14.01,2013-07-22 07:06:00,
2013-07-22 03:11:00,67.4,66.7,29.99,WSW,253,0.0,0.0,98,0.00,,CLR,0.00,VWS V14.01,2013-07-22 07:11:00,
2013-07-22 03:16:00,67.4,66.8,29.99,WSW,253,0.0,0.0,98,0.00,,CLR,0.00,VWS V14.01,2013-07-22 07:16:00,
2013-07-22 03:21:00,67.4,66.8,29.99,WSW,253,0.0,0.0,98,0.00,,CLR,0.00,VWS V14.01,2013-07-22 07:21:00,
2013-07-22 03:26:00,67.7,67.2,29.99,WSW,253,0.0,0.0,98,0.00,,CLR,0.00,VWS V14.01,2013-07-22 07:26:00,
2013-07-22 03:32:00,67.7,67.2,29.98,WSW,253,0.0,0.0,98,0.00,,CLR,0.00,VWS V14.01,2013-07-22 07:32:00,
2013-07-22 03:37:00,67.8,67.4,29.98,WSW,253,0.0,0.0,98,0.00,,CLR,0.00,VWS V14.01,2013-07-22 07:37:00,
2013-07-22 03:42:00,67.9,67.5,29.98,WSW,253,0.0,0.0,99,0.00,,CLR,0.00,VWS V14.01,2013-07-22 07:42:00,
2013-07-22 03:47:00,67.9,67.5,29.97,WSW,253,0.0,0.0,99,0.00,,CLR,0.00,VWS V14.01,2013-07-22 07:47:00,
2013-07-22 03:52:00,67.9,67.6,29.97,WSW,253,0.0,0.0,99,0.00,,CLR,0.00,VWS V14.01,2013-07-22 07:52:00,
2013-07-22 03:57:00,67.9,67.6,29.97,WSW,253,0.0,0.0,99,0.00,,CLR,0.00,VWS V14.01,2013-07-22 07:57:00,
2013-07-22 04:02:00,67.9,67.7,29.97,WSW,253,0.0,0.0,99,0.00,,CLR,0.00,VWS V14.01,2013-07-22 08:02:00,
2013-07-22 04:07:00,67.9,67.7,29.98,WSW,253,0.0,0.0,99,0.00,,CLR,0.00,VWS V14.01,2013-07-22 08:07:00,
2013-07-22 04:12:00,68.0,67.9,29.97,WSW,253,0.0,0.0,100,0.00,,CLR,0.00,VWS V14.01,2013-07-22 08:12:00,
2013-07-22 04:18:00,68.1,68.0,29.98,WSW,253,0.0,0.0,100,0.00,,CLR,0.00,VWS V14.01,2013-07-22 08:18:00,
2013-07-22 04:23:00,68.2,68.1,29.97,WSW,253,0.0,0.0,100,0.00,,CLR,0.00,VWS V14.01,2013-07-22 08:23:00,
2013-07-22 04:28:00,68.2,68.2,29.97,WSW,253,0.0,0.0,100,0.00,,CLR,0.00,VWS V14.01,2013-07-22 08:28:00,
2013-07-22 04:33:00,68.3,68.2,29.97,WSW,253,0.0,0.0,100,0.00,,CLR,0.00,VWS V14.01,2013-07-22 08:33:00,
2013-07-22 04:38:00,68.3,68.3,29.98,WSW,253,0.0,0.0,100,0.00,,CLR,0.00,VWS V14.01,2013-07-22 08:38:00,
2013-07-22 04:43:00,68.3,68.3,29.98,WSW,253,0.0,0.0,100,0.00,,CLR,0.00,VWS V14.01,2013-07-22 08:43:00,
2013-07-22 04:48:00,68.4,68.4,29.99,WSW,253,0.0,0.0,100,0.00,,CLR,0.00,VWS V14.01,2013-07-22 08:48:00,
2013-07-22 04:53:00,68.5,68.5,29.99,WSW,253,0.0,0.0,100,0.00,,CLR,0.00,VWS V14.01,2013-07-22 08:53:00,
2013-07-22 04:58:00,68.4,68.4,29.98,WSW,253,0.0,0.0,100,0.00,,CLR,0.00,VWS V14.01,2013-07-22 08:58:00,
2013-07-22 05:04:00,68.5,68.5,29.98,WSW,253,0.0,0.0,100,0.00,,OVC006,0.00,VWS V14.01,2013-07-22 09:04:00,
2013-07-22 05:09:00,68.6,68.6,29.98,WSW,253,0.0,0.0,100,0.00,,OVC006,0.00,VWS V14.01,2013-07-22 09:09:00,
2013-07-22 05:14:00,68.8,68.8,29.99,WSW,253,0.0,0.0,100,0.00,,OVC006,0.00,VWS V14.01,2013-07-22 09:14:00,
2013-07-22 05:19:00,68.9,68.9,29.99,WSW,253,0.0,0.0,100,0.00,,OVC006,0.00,VWS V14.01,2013-07-22 09:19:00,
2013-07-22 05:24:00,69.0,69.0,29.99,WSW,253,0.0,0.0,100,0.00,,OVC006,0.00,VWS V14.01,2013-07-22 09:24:00,
2013-07-22 05:29:00,68.9,68.9,29.98,WSW,253,0.0,0.0,100,0.00,,OVC006,0.00,VWS V14.01,2013-07-22 09:29:00,
2013-07-22 05:34:00,68.9,68.9,29.98,WSW,253,0.0,0.0,100,0.00,,OVC006,0.00,VWS V14.01,2013-07-22 09:34:00,
2013-07-22 05:39:00,68.9,68.9,29.99,WSW,253,0.0,0.0,100,0.00,,OVC006,0.00,VWS V14.01,2013-07-22 09:39:00,
2013-07-22 05:44:00,68.8,68.8,29.99,ENE,60,0.0,5.3,100,0.00,,OVC006,0.00,VWS V14.01,2013-07-22 09:44:00,
2013-07-22 05:49:00,68.7,68.7,30.00,ENE,60,0.0,5.3,100,0.00,,OVC006,0.00,VWS V14.01,2013-07-22 09:49:00,
2013-07-22 05:54:00,68.6,68.6,30.00,ENE,60,0.0,0.0,100,0.00,,OVC006,0.00,VWS V14.01,2013-07-22 09:54:00,
2013-07-22 06:00:00,68.4,68.4,29.99,ENE,60,0.0,0.0,100,0.00,,OVC006,0.00,VWS V14.01,2013-07-22 10:00:00,
2013-07-22 06:05:00,68.4,68.4,30.00,ENE,60,0.0,0.0,100,0.00,,,0.00,VWS V14.01,2013-07-22 10:05:00,
2013-07-22 06:10:00,68.4,68.4,30.00,ENE,60,0.0,0.0,100,0.00,,,0.00,VWS V14.01,2013-07-22 10:10:00,
2013-07-22 06:15:00,68.4,68.4,30.00,ENE,60,0.0,0.0,100,0.00,,,0.00,VWS V14.01,2013-07-22 10:15:00,
2013-07-22 06:20:00,68.5,68.5,30.00,ENE,60,0.0,0.0,100,0.00,,,0.00,VWS V14.01,2013-07-22 10:20:00,
2013-07-22 06:25:00,68.4,68.4,30.00,ENE,60,0.0,0.0,100,0.00,,,0.00,VWS V14.01,2013-07-22 10:25:00,
2013-07-22 06:30:00,68.5,68.5,30.00,ENE,60,0.0,0.0,100,0.00,,,0.00,VWS V14.01,2013-07-22 10:30:00,
2013-07-22 06:35:00,68.7,68.7,30.00,ENE,60,0.0,0.0,100,0.00,,,0.00,VWS V14.01,2013-07-22 10:35:00,
2013-07-22 06:40:00,68.8,68.8,30.00,ENE,60,0.0,0.0,100,0.00,,,0.00,VWS V14.01,2013-07-22 10:40:00,
2013-07-22 06:46:00,68.9,68.9,30.00,ENE,60,0.0,0.0,100,0.00,,,0.00,VWS V14.01,2013-07-22 10:46:00,
2013-07-22 06:51:00,69.1,69.1,30.00,ENE,60,0.0,0.0,100,0.00,,,0.00,VWS V14.01,2013-07-22 10:51:00,
2013-07-22 06:56:00,69.2,69.2,30.00,ENE,60,0.0,0.0,100,0.00,,,0.00,VWS V14.01,2013-07-22 10:56:00,
2013-07-22 07:01:00,69.3,69.3,30.00,ENE,60,0.0,0.0,100,0.00,,,0.00,VWS V14.01,2013-07-22 11:01:00,
2013-07-22 07:06:00,69.4,69.4,30.00,ENE,60,0.0,0.0,100,0.00,,,0.00,VWS V14.01,2013-07-22 11:06:00,
2013-07-22 07:11:00,69.6,69.6,30.00,ENE,60,0.0,0.0,100,0.00,,,0.00,VWS V14.01,2013-07-22 11:11:00,
2013-07-22 07:16:00,69.6,69.6,29.99,ENE,60,0.0,0.0,100,0.00,,,0.00,VWS V14.01,2013-07-22 11:16:00,
2013-07-22 07:21:00,69.7,69.7,30.00,ENE,60,0.0,0.0,100,0.00,,,0.00,VWS V14.01,2013-07-22 11:21:00,
2013-07-22 07:26:00,69.8,69.8,30.00,ENE,60,0.0,0.0,100,0.00,,,0.00,VWS V14.01,2013-07-22 11:26:00,
2013-07-22 07:32:00,69.9,69.9,30.00,ENE,60,0.0,0.0,100,0.00,,,0.00,VWS V14.01,2013-07-22 11:32:00,
2013-07-22 07:37:00,70.0,70.0,29.99,ENE,60,0.0,0.0,100,0.00,,,0.00,VWS V14.01,2013-07-22 11:37:00,
2013-07-22 07:42:00,70.1,70.1,29.99,ENE,60,0.0,0.0,100,0.00,,,0.00,VWS V14.01,2013-07-22 11:42:00,
2013-07-22 07:47:00,70.3,70.3,30.00,ENE,60,0.0,0.0,100,0.00,,,0.00,VWS V14.01,2013-07-22 11:47:00,
2013-07-22 07:52:00,70.5,70.5,30.00,ENE,60,0.0,0.0,100,0.00,,,0.00,VWS V14.01,2013-07-22 11:52:00,
2013-07-22 07:57:00,70.5,70.5,29.99,ENE,60,0.0,0.0,100,0.00,,,0.00,VWS V14.01,2013-07-22 11:57:00,
2013-07-22 08:02:00,70.6,70.6,29.99,ENE,60,0.0,0.0,100,0.00,,,0.00,VWS V14.01,2013-07-22 12:02:00,
2013-07-22 08:07:00,70.9,70.9,30.00,ENE,60,0.0,0.0,100,0.00,,,0.00,VWS V14.01,2013-07-22 12:07:00,
2013-07-22 08:13:00,71.0,71.0,30.00,ENE,60,0.0,0.0,100,0.00,,,0.00,VWS V14.01,2013-07-22 12:13:00,
2013-07-22 08:18:00,71.3,71.3,30.00,ENE,60,0.0,0.0,100,0.00,,,0.00,VWS V14.01,2013-07-22 12:18:00,
2013-07-22 08:23:00,71.4,71.4,30.00,ENE,60,0.0,0.0,100,0.00,,,0.00,VWS V14.01,2013-07-22 12:23:00,
2013-07-22 08:28:00,71.5,71.5,30.00,ENE,60,0.0,0.0,100,0.00,,,0.00,VWS V14.01,2013-07-22 12:28:00,
2013-07-22 08:33:00,71.8,71.8,30.00,ENE,60,0.0,0.0,100,0.00,,,0.00,VWS V14.01,2013-07-22 12:33:00,
2013-07-22 08:38:00,71.9,71.9,30.00,ENE,60,0.0,0.0,100,0.00,,,0.00,VWS V14.01,2013-07-22 12:38:00,
2013-07-22 08:43:00,72.1,72.1,30.00,ENE,60,0.0,0.0,100,0.00,,,0.00,VWS V14.01,2013-07-22 12:43:00,
2013-07-22 08:48:00,72.2,72.2,30.00,ENE,60,0.0,0.0,100,0.00,,,0.00,VWS V14.01,2013-07-22 12:48:00,
2013-07-22 08:53:00,72.3,72.3,30.00,ENE,60,0.0,0.0,100,0.00,,,0.00,VWS V14.01,2013-07-22 12:53:00,
2013-07-22 08:59:00,72.5,72.5,30.00,ENE,60,0.0,0.0,100,0.00,,,0.00,VWS V14.01,2013-07-22 12:59:00,
2013-07-22 09:04:00,72.6,72.6,30.00,ENE,60,0.0,0.0,100,0.00,,OVC009,0.00,VWS V14.01,2013-07-22 13:04:00,
2013-07-22 09:09:00,72.5,72.5,30.00,ENE,60,0.0,0.0,100,0.00,,OVC009,0.00,VWS V14.01,2013-07-22 13:09:00,
2013-07-22 09:14:00,72.7,72.7,30.00,ENE,60,0.0,0.0,100,0.00,,OVC009,0.00,VWS V14.01,2013-07-22 13:14:00,
2013-07-22 09:19:00,72.8,72.6,30.00,ENE,60,0.0,0.0,99,0.00,,OVC009,0.00,VWS V14.01,2013-07-22 13:19:00,
2013-07-22 09:24:00,73.0,72.8,30.00,ENE,60,0.0,0.0,99,0.00,,OVC009,0.00,VWS V14.01,2013-07-22 13:24:00,
2013-07-22 09:29:00,73.2,73.0,30.00,ENE,60,0.0,0.0,99,0.00,,OVC009,0.00,VWS V14.01,2013-07-22 13:29:00,
2013-07-22 09:34:00,73.2,72.8,30.00,ENE,60,0.0,0.0,99,0.00,,OVC009,0.00,VWS V14.01,2013-07-22 13:34:00,
2013-07-22 09:39:00,73.3,72.8,30.00,ENE,60,0.0,0.0,98,0.00,,OVC009,0.00,VWS V14.01,2013-07-22 13:39:00,
2013-07-22 09:45:00,73.6,73.1,30.00,ENE,60,0.0,0.0,98,0.00,,OVC009,0.00,VWS V14.01,2013-07-22 13:45:00,
2013-07-22 09:50:00,73.8,73.2,30.00,ENE,60,0.0,0.0,98,0.00,,OVC009,0.00,VWS V14.01,2013-07-22 13:50:00,
2013-07-22 09:55:00,74.1,73.4,30.00,ENE,60,0.0,0.0,98,0.00,,OVC009,0.00,VWS V14.01,2013-07-22 13:55:00,
2013-07-22 10:00:00,74.3,73.4,30.00,ENE,60,0.0,0.0,97,0.00,,OVC009,0.00,VWS V14.01,2013-07-22 14:00:00,
2013-07-22 10:05:00,74.6,73.7,29.99,ENE,60,0.0,0.0,97,0.00,,OVC013,0.00,VWS V14.01,2013-07-22 14:05:00,
2013-07-22 10:10:00,74.9,73.8,29.99,ENE,60,0.0,0.0,96,0.00,,OVC013,0.00,VWS V14.01,2013-07-22 14:10:00,
2013-07-22 10:15:00,75.0,73.6,29.99,ENE,60,0.0,0.0,96,0.00,,OVC013,0.00,VWS V14.01,2013-07-22 14:15:00,
2013-07-22 10:20:00,75.2,73.8,30.00,ENE,60,0.0,0.0,95,0.00,,OVC013,0.00,VWS V14.01,2013-07-22 14:20:00,
2013-07-22 10:25:00,75.3,73.6,30.00,ENE,60,0.0,0.0,94,0.00,,OVC013,0.00,VWS V14.01,2013-07-22 14:25:00,
2013-07-22 10:31:00,75.6,73.7,30.00,ENE,60,0.0,0.0,94,0.00,,OVC013,0.00,VWS V14.01,2013-07-22 14:31:00,
2013-07-22 10:36:00,75.7,73.8,30.00,ENE,60,0.0,0.0,94,0.00,,OVC013,0.00,VWS V14.01,2013-07-22 14:36:00,
2013-07-22 10:41:00,75.6,73.5,30.00,ENE,60,0.0,0.0,93,0.00,,OVC013,0.00,VWS V14.01,2013-07-22 14:41:00,
2013-07-22 10:46:00,75.2,73.0,30.00,ENE,60,0.0,0.0,93,0.00,,OVC013,0.00,VWS V14.01,2013-07-22 14:46:00,
2013-07-22 10:51:00,75.1,72.9,30.00,ENE,60,0.0,0.0,93,0.00,,OVC013,0.00,VWS V14.01,2013-07-22 14:51:00,
2013-07-22 10:56:00,75.1,73.0,30.00,ENE,60,0.0,0.0,93,0.00,,OVC013,0.00,VWS V14.01,2013-07-22 14:56:00,
2013-07-22 11:01:00,75.1,72.9,30.00,ENE,60,0.0,0.0,93,0.00,,OVC017,0.00,VWS V14.01,2013-07-22 15:01:00,
2013-07-22 11:06:00,75.1,73.0,30.00,ENE,60,0.0,0.0,93,0.00,,OVC017,0.00,VWS V14.01,2013-07-22 15:06:00,
2013-07-22 11:11:00,75.1,73.0,30.00,ENE,60,0.0,0.0,93,0.00,,OVC017,0.00,VWS V14.01,2013-07-22 15:11:00,
2013-07-22 11:16:00,75.1,73.0,30.00,ENE,60,0.0,0.0,93,0.00,,OVC017,0.00,VWS V14.01,2013-07-22 15:16:00,
2013-07-22 11:21:00,75.2,73.2,30.00,ENE,60,0.0,0.0,94,0.00,,OVC017,0.00,VWS V14.01,2013-07-22 15:21:00,
2013-07-22 11:26:00,75.2,73.3,30.00,ENE,60,0.0,0.0,94,0.00,,OVC017,0.00,VWS V14.01,2013-07-22 15:26:00,
2013-07-22 11:31:00,75.3,73.3,30.00,ENE,60,0.0,0.0,94,0.00,,OVC017,0.00,VWS V14.01,2013-07-22 15:31:00,
2013-07-22 11:37:00,75.7,73.7,29.99,ENE,60,0.0,0.0,94,0.00,,OVC017,0.00,VWS V14.01,2013-07-22 15:37:00,
2013-07-22 11:42:00,75.7,73.6,30.00,ENE,60,0.0,0.0,93,0.00,,OVC017,0.00,VWS V14.01,2013-07-22 15:42:00,
2013-07-22 11:47:00,75.8,73.7,30.00,ENE,60,0.0,0.0,93,0.00,,OVC017,0.00,VWS V14.01,2013-07-22 15:47:00,
2013-07-22 11:52:00,76.0,73.8,29.99,ENE,60,0.0,0.0,93,0.00,,OVC017,0.00,VWS V14.01,2013-07-22 15:52:00,
2013-07-22 11:57:00,76.2,73.9,29.99,ENE,60,0.0,0.0,92,0.00,,OVC017,0.00,VWS V14.01,2013-07-22 15:57:00,
2013-07-22 12:02:00,76.3,73.7,29.99,ENE,60,0.0,0.0,92,0.00,,OVC033,0.00,VWS V14.01,2013-07-22 16:02:00,
2013-07-22 12:07:00,76.4,73.8,29.99,ENE,60,0.0,0.0,92,0.00,,OVC033,0.00,VWS V14.01,2013-07-22 16:07:00,
2013-07-22 12:12:00,76.7,74.0,29.98,ENE,60,0.0,0.0,92,0.00,,OVC033,0.00,VWS V14.01,2013-07-22 16:12:00,
2013-07-22 12:17:00,77.0,74.3,29.99,ENE,60,0.0,0.0,92,0.00,,OVC033,0.00,VWS V14.01,2013-07-22 16:17:00,
2013-07-22 12:22:00,77.1,74.3,29.98,ENE,60,0.0,0.0,91,0.00,,OVC033,0.00,VWS V14.01,2013-07-22 16:22:00,
2013-07-22 12:27:00,77.2,74.3,29.99,ENE,60,0.0,0.0,91,0.00,,OVC033,0.00,VWS V14.01,2013-07-22 16:27:00,
2013-07-22 12:32:00,77.1,74.3,29.98,ENE,60,0.0,0.0,91,0.00,,OVC033,0.00,VWS V14.01,2013-07-22 16:32:00,
2013-07-22 12:38:00,76.9,74.1,29.98,ENE,60,0.0,0.0,91,0.00,,OVC033,0.00,VWS V14.01,2013-07-22 16:38:00,
2013-07-22 12:43:00,76.8,73.9,29.98,ENE,60,0.0,0.0,91,0.00,,OVC033,0.00,VWS V14.01,2013-07-22 16:43:00,
2013-07-22 12:48:00,77.0,74.1,29.98,ENE,60,0.0,0.0,91,0.00,,OVC033,0.00,VWS V14.01,2013-07-22 16:48:00,
2013-07-22 12:53:00,77.4,74.6,29.97,ENE,60,0.0,0.0,91,0.00,,OVC033,0.00,VWS V14.01,2013-07-22 16:53:00,
2013-07-22 12:58:00,77.4,74.5,29.97,ENE,60,0.0,0.0,91,0.00,,OVC033,0.00,VWS V14.01,2013-07-22 16:58:00,
2013-07-22 13:03:00,77.7,74.7,29.97,ENE,60,0.0,0.0,90,0.00,,OVC026,0.00,VWS V14.01,2013-07-22 17:03:00,
2013-07-22 13:08:00,78.3,75.3,29.97,ENE,60,0.0,0.0,90,0.00,,OVC026,0.00,VWS V14.01,2013-07-22 17:08:00,
2013-07-22 13:13:00,78.3,74.7,29.97,ENE,60,0.0,0.0,89,0.00,,OVC026,0.00,VWS V14.01,2013-07-22 17:13:00,
2013-07-22 13:18:00,78.4,74.7,29.97,ENE,60,0.0,0.0,88,0.00,,OVC026,0.00,VWS V14.01,2013-07-22 17:18:00,
2013-07-22 13:24:00,78.7,75.5,29.97,ENE,60,0.0,0.0,90,0.00,,OVC026,0.00,VWS V14.01,2013-07-22 17:24:00,
2013-07-22 13:29:00,78.8,75.6,29.97,ENE,60,0.0,0.0,90,0.00,,OVC026,0.00,VWS V14.01,2013-07-22 17:29:00,
2013-07-22 13:34:00,79.2,75.7,29.96,WSW,257,0.0,0.0,89,0.00,,OVC026,0.00,VWS V14.01,2013-07-22 17:34:00,
2013-07-22 13:39:00,79.2,74.8,29.96,NW,323,0.0,5.2,86,0.00,,OVC026,0.00,VWS V14.01,2013-07-22 17:39:00,
2013-07-22 13:44:00,79.5,75.1,29.96,NW,323,0.0,0.0,86,0.00,,OVC026,0.00,VWS V14.01,2013-07-22 17:44:00,
2013-07-22 13:49:00,79.7,75.8,29.96,NW,323,0.0,0.0,88,0.00,,OVC026,0.00,VWS V14.01,2013-07-22 17:49:00,
2013-07-22 13:54:00,79.4,75.2,29.96,NW,323,0.0,0.0,87,0.00,,OVC026,0.00,VWS V14.01,2013-07-22 17:54:00,
2013-07-22 13:59:00,79.8,75.5,29.95,NW,323,0.0,0.0,87,0.00,,OVC026,0.00,VWS V14.01,2013-07-22 17:59:00,
2013-07-22 14:05:00,79.9,75.8,29.95,NW,316,0.0,3.5,87,0.00,,BKN046,0.00,VWS V14.01,2013-07-22 18:05:00,
2013-07-22 14:10:00,80.1,75.5,29.95,NW,316,0.0,3.5,86,0.00,,BKN046,0.00,VWS V14.01,2013-07-22 18:10:00,
2013-07-22 14:15:00,80.1,75.1,29.95,NW,316,0.0,0.0,85,0.00,,BKN046,0.00,VWS V14.01,2013-07-22 18:15:00,
2013-07-22 14:20:00,80.2,75.8,29.95,NW,316,0.0,0.0,86,0.00,,BKN046,0.00,VWS V14.01,2013-07-22 18:20:00,
2013-07-22 14:25:00,80.0,75.6,29.95,NW,316,0.0,0.0,86,0.00,,BKN046,0.00,VWS V14.01,2013-07-22 18:25:00,
2013-07-22 14:31:00,79.7,75.2,29.95,NW,316,0.0,0.0,86,0.00,,BKN046,0.00,VWS V14.01,2013-07-22 18:31:00,
2013-07-22 14:37:00,79.4,75.3,29.95,NW,316,0.0,0.0,87,0.00,,BKN046,0.00,VWS V14.01,2013-07-22 18:37:00,
2013-07-22 14:42:00,79.2,75.2,29.94,NW,316,0.0,0.0,88,0.00,,BKN046,0.00,VWS V14.01,2013-07-22 18:42:00,
2013-07-22 14:47:00,78.9,75.1,29.95,NW,316,0.0,0.0,88,0.00,,BKN046,0.00,VWS V14.01,2013-07-22 18:47:00,
2013-07-22 14:52:00,78.8,75.1,29.94,NW,316,0.0,0.0,88,0.00,,BKN046,0.00,VWS V14.01,2013-07-22 18:52:00,
2013-07-22 14:57:00,78.4,74.9,29.94,NW,316,0.0,0.0,89,0.00,,BKN046,0.00,VWS V14.01,2013-07-22 18:57:00,
2013-07-22 15:02:00,78.2,74.8,29.94,NW,316,0.0,0.0,89,0.00,,BKN037,0.00,VWS V14.01,2013-07-22 19:02:00,
2013-07-22 15:07:00,78.0,74.9,29.93,NW,316,0.0,0.0,90,0.00,,BKN037,0.00,VWS V14.01,2013-07-22 19:07:00,
2013-07-22 15:12:00,77.8,74.9,29.93,NW,316,0.0,0.0,91,0.00,,BKN037,0.00,VWS V14.01,2013-07-22 19:12:00,
2013-07-22 15:17:00,77.5,74.6,29.94,NW,316,0.0,0.0,91,0.00,,BKN037,0.00,VWS V14.01,2013-07-22 19:17:00,
2013-07-22 15:22:00,77.7,74.9,29.93,NW,316,0.0,0.0,91,0.00,,BKN037,0.00,VWS V14.01,2013-07-22 19:22:00,
2013-07-22 15:28:00,77.4,74.6,29.93,NW,316,0.0,0.0,91,0.00,,BKN037,0.00,VWS V14.01,2013-07-22 19:28:00,
2013-07-22 15:33:00,77.3,74.6,29.93,NW,316,0.0,0.0,91,0.00,,BKN037,0.00,VWS V14.01,2013-07-22 19:33:00,
2013-07-22 15:38:00,77.3,74.7,29.92,NW,316,0.0,0.0,92,0.00,,BKN037,0.00,VWS V14.01,2013-07-22 19:38:00,
2013-07-22 15:43:00,77.3,74.8,29.93,NW,316,0.0,0.0,92,0.00,,BKN037,0.00,VWS V14.01,2013-07-22 19:43:00,
2013-07-22 15:48:00,77.3,74.8,29.93,NW,316,0.0,0.0,92,0.00,,BKN037,0.00,VWS V14.01,2013-07-22 19:48:00,
2013-07-22 15:53:00,77.3,74.9,29.92,NW,316,0.0,0.0,92,0.00,,BKN037,0.00,VWS V14.01,2013-07-22 19:53:00,
2013-07-22 15:58:00,77.4,74.9,29.92,NW,316,0.0,0.0,92,0.00,,BKN037,0.00,VWS V14.01,2013-07-22 19:58:00,
2013-07-22 16:03:00,77.3,74.7,29.92,NW,316,0.0,0.0,92,0.00,,BKN043,0.00,VWS V14.01,2013-07-22 20:03:00,
2013-07-22 16:08:00,77.3,74.8,29.92,NW,316,0.0,0.0,92,0.00,,BKN043,0.00,VWS V14.01,2013-07-22 20:08:00,
2013-07-22 16:13:00,77.4,74.8,29.91,NW,316,0.0,0.0,92,0.00,,BKN043,0.00,VWS V14.01,2013-07-22 20:13:00,
2013-07-22 16:17:00,77.5,75.0,29.91,NW,316,0.0,0.0,92,0.00,,BKN043,0.00,VWS V14.01,2013-07-22 20:17:00,
2013-07-22 16:19:00,77.8,75.3,29.91,NW,316,0.0,0.0,92,0.00,,BKN043,0.00,VWS V14.01,2013-07-22 20:19:00,
2013-07-22 16:21:00,77.8,75.2,29.91,NW,316,0.0,0.0,92,0.00,,BKN043,0.00,VWS V14.01,2013-07-22 20:21:00,
2013-07-22 16:26:00,77.9,75.1,29.91,NW,316,0.0,0.0,91,0.00,,BKN043,0.00,VWS V14.01,2013-07-22 20:26:00,
2013-07-22 16:31:00,78.2,75.4,29.91,NW,316,0.0,0.0,91,0.00,,BKN043,0.00,VWS V14.01,2013-07-22 20:31:00,
2013-07-22 16:36:00,78.3,75.0,29.91,NW,316,0.0,0.0,90,0.00,,BKN043,0.00,VWS V14.01,2013-07-22 20:36:00,
2013-07-22 16:41:00,78.7,75.3,29.91,NW,316,0.0,0.0,89,0.00,,BKN043,0.00,VWS V14.01,2013-07-22 20:41:00,
2013-07-22 16:45:00,78.9,75.6,29.91,WNW,292,0.0,3.5,90,0.00,,BKN043,0.00,VWS V14.01,2013-07-22 20:45:00,
2013-07-22 16:50:00,79.0,75.6,29.91,WNW,292,0.0,3.5,89,0.00,,BKN043,0.00,VWS V14.01,2013-07-22 20:50:00,
2013-07-22 16:55:00,78.9,75.1,29.91,WNW,292,0.0,0.0,88,0.00,,BKN043,0.00,VWS V14.01,2013-07-22 20:55:00,
2013-07-22 17:00:00,78.4,74.6,29.91,WNW,292,0.0,0.0,88,0.00,,BKN043,0.00,VWS V14.01,2013-07-22 21:00:00,
2013-07-22 17:05:00,78.2,74.7,29.90,WNW,292,0.0,0.0,89,0.00,,SCT017,0.00,VWS V14.01,2013-07-22 21:05:00,
2013-07-22 17:10:00,78.0,74.5,29.90,WNW,292,0.0,0.0,89,0.00,,SCT017,0.00,VWS V14.01,2013-07-22 21:10:00,
2013-07-22 17:15:00,77.9,74.7,29.90,WNW,292,0.0,0.0,90,0.00,,SCT017,0.00,VWS V14.01,2013-07-22 21:15:00,
2013-07-22 17:20:00,77.7,74.6,29.90,WNW,292,0.0,0.0,90,0.00,,SCT017,0.00,VWS V14.01,2013-07-22 21:20:00,
2013-07-22 17:26:00,77.3,74.3,29.90,WNW,292,0.0,0.0,90,0.00,,SCT017,0.00,VWS V14.01,2013-07-22 21:26:00,
2013-07-22 17:31:00,77.2,74.3,29.90,WNW,292,0.0,0.0,91,0.00,,SCT017,0.00,VWS V14.01,2013-07-22 21:31:00,
2013-07-22 17:36:00,77.1,74.3,29.90,WNW,292,0.0,0.0,91,0.00,,SCT017,0.00,VWS V14.01,2013-07-22 21:36:00,
2013-07-22 17:41:00,77.0,74.2,29.90,WNW,292,0.0,0.0,91,0.00,,SCT017,0.00,VWS V14.01,2013-07-22 21:41:00,
2013-07-22 17:46:00,76.8,74.1,29.90,WNW,292,0.0,0.0,91,0.00,,SCT017,0.00,VWS V14.01,2013-07-22 21:46:00,
2013-07-22 17:51:00,76.8,74.2,29.90,WNW,292,0.0,0.0,92,0.00,,SCT017,0.00,VWS V14.01,2013-07-22 21:51:00,
2013-07-22 17:56:00,76.7,74.1,29.89,WNW,292,0.0,0.0,92,0.00,,SCT017,0.00,VWS V14.01,2013-07-22 21:56:00,
2013-07-22 18:01:00,76.5,74.0,29.89,WNW,292,0.0,0.0,92,0.00,,FEW019,0.00,VWS V14.01,2013-07-22 22:01:00,
2013-07-22 18:06:00,76.5,74.0,29.89,WNW,292,0.0,0.0,92,0.00,,FEW019,0.00,VWS V14.01,2013-07-22 22:06:00,
2013-07-22 18:12:00,76.4,74.0,29.89,WNW,292,0.0,0.0,92,0.00,,FEW019,0.00,VWS V14.01,2013-07-22 22:12:00,
2013-07-22 18:17:00,76.3,74.0,29.89,WNW,292,0.0,0.0,93,0.00,,FEW019,0.00,VWS V14.01,2013-07-22 22:17:00,
2013-07-22 18:22:00,76.2,74.0,29.89,WNW,292,0.0,0.0,93,0.00,,FEW019,0.00,VWS V14.01,2013-07-22 22:22:00,
2013-07-22 18:27:00,76.1,74.0,29.89,WNW,292,0.0,0.0,93,0.00,,FEW019,0.00,VWS V14.01,2013-07-22 22:27:00,
2013-07-22 18:32:00,76.1,74.0,29.89,WNW,292,0.0,0.0,93,0.00,,FEW019,0.00,VWS V14.01,2013-07-22 22:32:00,
2013-07-22 18:37:00,76.1,74.1,29.89,WNW,292,0.0,0.0,94,0.05,,FEW019,0.05,VWS V14.01,2013-07-22 22:37:00,
2013-07-22 18:42:00,75.8,74.2,29.89,WNW,292,0.0,0.0,95,0.35,,FEW019,0.35,VWS V14.01,2013-07-22 22:42:00,
2013-07-22 18:47:00,75.3,74.1,29.89,WNW,292,0.0,0.0,96,0.49,,FEW019,0.49,VWS V14.01,2013-07-22 22:47:00,
2013-07-22 18:52:00,75.1,74.1,29.89,WNW,292,0.0,0.0,97,0.52,,FEW019,0.52,VWS V14.01,2013-07-22 22:52:00,
2013-07-22 18:57:00,74.9,74.1,29.89,WNW,292,0.0,0.0,97,0.55,,FEW019,0.55,VWS V14.01,2013-07-22 22:57:00,
2013-07-22 19:02:00,74.9,74.4,29.89,WNW,292,0.0,0.0,98,0.55,,-RA,0.55,VWS V14.01,2013-07-22 23:02:00,
2013-07-22 19:08:00,74.8,74.4,29.89,WNW,292,0.0,0.0,99,0.55,,-RA,0.55,VWS V14.01,2013-07-22 23:08:00,
2013-07-22 19:13:00,74.8,74.5,29.89,WNW,292,0.0,0.0,99,0.55,,-RA,0.55,VWS V14.01,2013-07-22 23:13:00,
2013-07-22 19:18:00,74.7,74.5,29.90,WNW,292,0.0,0.0,99,0.55,,-RA,0.55,VWS V14.01,2013-07-22 23:18:00,
2013-07-22 19:23:00,74.7,74.6,29.89,WNW,292,0.0,0.0,100,0.55,,-RA,0.55,VWS V14.01,2013-07-22 23:23:00,
2013-07-22 19:28:00,74.7,74.7,29.90,WNW,292,0.0,0.0,100,0.55,,-RA,0.55,VWS V14.01,2013-07-22 23:28:00,
2013-07-22 19:33:00,74.6,74.6,29.89,WNW,292,0.0,0.0,100,0.55,,-RA,0.55,VWS V14.01,2013-07-22 23:33:00,
2013-07-22 19:38:00,74.5,74.5,29.89,WNW,292,0.0,0.0,100,0.56,,-RA,0.56,VWS V14.01,2013-07-22 23:38:00,
2013-07-22 19:43:00,74.6,74.6,29.89,WNW,292,0.0,0.0,100,0.22,,-RA,0.56,VWS V14.01,2013-07-22 23:43:00,
2013-07-22 19:48:00,74.5,74.5,29.89,WNW,292,0.0,0.0,100,0.22,,-RA,0.56,VWS V14.01,2013-07-22 23:48:00,
2013-07-22 19:54:00,74.6,74.6,29.89,WNW,292,0.0,0.0,100,0.04,,-RA,0.56,VWS V14.01,2013-07-22 23:54:00,
2013-07-22 19:59:00,74.4,74.4,29.88,WNW,292,0.0,0.0,100,0.10,,-RA,0.62,VWS V14.01,2013-07-22 23:59:00,
2013-07-22 20:04:00,74.3,74.3,29.88,WNW,292,0.0,0.0,100,0.08,,RA,0.63,VWS V14.01,2013-07-23 00:04:00,
2013-07-22 20:09:00,74.4,74.4,29.89,WNW,292,0.0,0.0,100,0.08,,RA,0.63,VWS V14.01,2013-07-23 00:09:00,
2013-07-22 20:14:00,74.4,74.4,29.89,WNW,292,0.0,0.0,100,0.08,,RA,0.63,VWS V14.01,2013-07-23 00:14:00,
2013-07-22 20:19:00,74.5,74.5,29.88,WNW,292,0.0,0.0,100,0.08,,RA,0.63,VWS V14.01,2013-07-23 00:19:00,
2013-07-22 20:24:00,74.4,74.4,29.88,WNW,292,0.0,0.0,100,0.08,,RA,0.63,VWS V14.01,2013-07-23 00:24:00,
2013-07-22 20:29:00,74.3,74.3,29.88,WNW,292,0.0,0.0,100,0.08,,RA,0.63,VWS V14.01,2013-07-23 00:29:00,
2013-07-22 20:35:00,74.4,74.4,29.89,WNW,292,0.0,0.0,100,0.08,,RA,0.63,VWS V14.01,2013-07-23 00:35:00,
2013-07-22 20:40:00,74.4,74.4,29.89,WNW,292,0.0,0.0,100,0.09,,RA,0.64,VWS V14.01,2013-07-23 00:40:00,
2013-07-22 20:45:00,74.5,74.5,29.88,WNW,292,0.0,0.0,100,0.08,,RA,0.64,VWS V14.01,2013-07-23 00:45:00,
2013-07-22 20:50:00,74.3,74.3,29.87,WNW,292,0.0,0.0,100,0.08,,RA,0.64,VWS V14.01,2013-07-23 00:50:00,
2013-07-22 20:55:00,74.4,74.4,29.88,WNW,292,0.0,0.0,100,0.08,,RA,0.64,VWS V14.01,2013-07-23 00:55:00,
2013-07-22 21:00:00,74.4,74.4,29.89,WNW,292,0.0,0.0,100,0.09,,RA,0.65,VWS V14.01,2013-07-23 01:00:00,
2013-07-22 21:05:00,74.4,74.4,29.88,WNW,292,0.0,0.0,100,0.02,,-RA,0.65,VWS V14.01,2013-07-23 01:05:00,
2013-07-22 21:10:00,74.4,74.4,29.87,WNW,292,0.0,0.0,100,0.02,,-RA,0.65,VWS V14.01,2013-07-23 01:10:00,
2013-07-22 21:15:00,74.2,74.2,29.88,WNW,292,0.0,0.0,100,0.03,,-RA,0.66,VWS V14.01,2013-07-23 01:15:00,
2013-07-22 21:20:00,74.3,74.3,29.88,WNW,292,0.0,0.0,100,0.03,,-RA,0.66,VWS V14.01,2013-07-23 01:20:00,
2013-07-22 21:26:00,74.3,74.3,29.88,WNW,292,0.0,0.0,100,0.03,,-RA,0.66,VWS V14.01,2013-07-23 01:26:00,
2013-07-22 21:31:00,74.1,74.1,29.88,WNW,292,0.0,0.0,100,0.03,,-RA,0.66,VWS V14.01,2013-07-23 01:31:00,
2013-07-22 21:36:00,74.1,74.1,29.87,WNW,292,0.0,0.0,100,0.03,,-RA,0.66,VWS V14.01,2013-07-23 01:36:00,
2013-07-22 21:41:00,73.9,73.9,29.88,WNW,292,0.0,0.0,100,0.03,,-RA,0.66,VWS V14.01,2013-07-23 01:41:00,
2013-07-22 21:46:00,73.9,73.9,29.88,WNW,292,0.0,0.0,100,0.02,,-RA,0.66,VWS V14.01,2013-07-23 01:46:00,
2013-07-22 21:51:00,73.7,73.7,29.88,WNW,292,0.0,0.0,100,0.02,,-RA,0.66,VWS V14.01,2013-07-23 01:51:00,
2013-07-22 21:56:00,73.6,73.6,29.87,WNW,292,0.0,0.0,100,0.02,,-RA,0.66,VWS V14.01,2013-07-23 01:56:00,
2013-07-22 22:01:00,73.5,73.5,29.87,WNW,292,0.0,0.0,100,0.02,,-RA,0.66,VWS V14.01,2013-07-23 02:01:00,
2013-07-22 22:06:00,73.4,73.4,29.88,WNW,292,0.0,0.0,100,0.01,,-RA,0.66,VWS V14.01,2013-07-23 02:06:00,
2013-07-22 22:11:00,73.4,73.4,29.88,WNW,292,0.0,0.0,100,0.01,,-RA,0.66,VWS V14.01,2013-07-23 02:11:00,
2013-07-22 22:17:00,73.4,73.4,29.87,WNW,292,0.0,0.0,100,0.01,,-RA,0.66,VWS V14.01,2013-07-23 02:17:00,
2013-07-22 22:22:00,73.3,73.3,29.87,WNW,292,0.0,0.0,100,0.01,,-RA,0.66,VWS V14.01,2013-07-23 02:22:00,
2013-07-22 22:27:00,73.1,73.1,29.87,WNW,292,0.0,0.0,100,0.00,,-RA,0.66,VWS V14.01,2013-07-23 02:27:00,
2013-07-22 22:32:00,73.1,73.1,29.87,WNW,292,0.0,0.0,100,0.00,,-RA,0.66,VWS V14.01,2013-07-23 02:32:00,
2013-07-22 22:37:00,73.1,73.1,29.88,WNW,292,0.0,0.0,100,0.00,,-RA,0.66,VWS V14.01,2013-07-23 02:37:00,
2013-07-22 22:42:00,73.1,73.1,29.88,WNW,292,0.0,0.0,100,0.00,,-RA,0.66,VWS V14.01,2013-07-23 02:42:00,
2013-07-22 22:47:00,73.0,73.0,29.87,WNW,292,0.0,0.0,100,0.00,,-RA,0.66,VWS V14.01,2013-07-23 02:47:00,
2013-07-22 22:52:00,72.9,72.9,29.87,WNW,292,0.0,0.0,100,0.00,,-RA,0.66,VWS V14.01,2013-07-23 02:52:00,
2013-07-22 22:57:00,72.9,72.9,29.87,WNW,292,0.0,0.0,100,0.00,,-RA,0.66,VWS V14.01,2013-07-23 02:57:00,
2013-07-22 23:02:00,72.9,72.9,29.88,WNW,292,0.0,0.0,100,0.01,,OVC012,0.67,VWS V14.01,2013-07-23 03:02:00,
2013-07-22 23:07:00,72.7,72.7,29.87,WNW,292,0.0,0.0,100,0.01,,OVC012,0.67,VWS V14.01,2013-07-23 03:07:00,
2013-07-22 23:12:00,72.7,72.7,29.87,WNW,292,0.0,0.0,100,0.01,,OVC012,0.67,VWS V14.01,2013-07-23 03:12:00,
2013-07-22 23:17:00,72.6,72.6,29.87,WNW,292,0.0,0.0,100,0.01,,OVC012,0.67,VWS V14.01,2013-07-23 03:17:00,
2013-07-22 23:23:00,72.7,72.7,29.87,WNW,292,0.0,0.0,100,0.01,,OVC012,0.67,VWS V14.01,2013-07-23 03:23:00,
2013-07-22 23:28:00,72.6,72.6,29.87,WNW,292,0.0,0.0,100,0.02,,OVC012,0.68,VWS V14.01,2013-07-23 03:28:00,
2013-07-22 23:33:00,72.5,72.5,29.86,WNW,292,0.0,0.0,100,0.02,,OVC012,0.68,VWS V14.01,2013-07-23 03:33:00,
2013-07-22 23:38:00,72.4,72.4,29.86,WNW,292,0.0,0.0,100,0.02,,OVC012,0.68,VWS V14.01,2013-07-23 03:38:00,
2013-07-22 23:43:00,72.4,72.4,29.86,WNW,292,0.0,0.0,100,0.02,,OVC012,0.68,VWS V14.01,2013-07-23 03:43:00,
2013-07-22 23:48:00,72.5,72.5,29.86,WNW,292,0.0,0.0,100,0.02,,OVC012,0.68,VWS V14.01,2013-07-23 03:48:00,
2013-07-22 23:53:00,72.4,72.4,29.86,WNW,292,0.0,0.0,100,0.02,,OVC012,0.68,VWS V14.01,2013-07-23 03:53:00,
2013-07-22 23:58:00,72.4,72.4,29.85,WNW,292,0.0,0.0,100,0.03,,OVC012,0.69,VWS V14.01,2013-07-23 03:58:00,